Preview of NWS' New Version of Forecast
This preview is not operational and should not be used for support decisions.
Latest weather observations around

Roanoke, Roanoke Regional Airport (KROA)

Using English Units (Switch to International System of Units)
Date/ Time (EDT) Wind (mph) Vis. (mi) Weather Sky Cond. Temp (°F) Rel. Humidity Wind Chill (°F) Heat Index (°F) Pressure Precip. (in)
Air Dwpt 6 hour Altimeter (inHg) Sea level (inHg) 1 hr 3 hr 6 hr
Max Min
May 26 12:54 W 9 10 Light Rain SCT040 BKN060 OVC070 77 67     71%   78 29.96 29.93 0    
May 26 11:54 S 7 10 Light Rain FEW033 SCT080 OVC095 77 67     71%   78 29.98 29.94 0    
May 26 10:54 5 10 Cloudy BKN060 BKN070 OVC100 77 65     66%   78 29.99 29.95      
May 26 09:54 Calm 10 Mostly Cloudy BKN065 BKN100 76 65     69%   76 29.99 29.95      
May 26 08:54 WSW 5 10 Mostly Cloudy BKN055 BKN150 73 65     76%   74 30 29.96      
May 26 07:54 Calm 10 Mostly Cloudy SCT100 BKN150 72 64     76%   72 29.98 29.94      
May 26 06:54 Calm 10 Mostly Cloudy BKN100 71 65     81%   72 29.98 29.94      
May 26 05:54 Calm 10 Mostly Cloudy BKN090 70 63     78%     29.97 29.93      
May 26 04:54 SW 3 10 Clear CLR 70 63     78%     29.97 29.93      
May 26 03:54 NW 3 10 Clear CLR 69 63     81%     29.97 29.93      
May 26 02:54 W 8 10 Clear CLR 71 63     76%   71 29.97 29.93      
May 26 01:54 W 5 10 Clear CLR 71 63     76%   71 29.98 29.94      
May 26 00:54 WSW 7 10 Partly Cloudy SCT110 72 62     71%   72 30 29.96      
May 25 23:54 5 10 Clear CLR 74 63     69%   74 30.01 29.97      
May 25 22:54 WSW 6 10 Clear CLR 74 64     71%   74 30.02 29.98      
May 25 21:54 SSW 6 10 Clear CLR 76 64     67%   76 30 29.96      
May 25 20:54 S 8 10 Partly Cloudy FEW080 SCT200 77 64     64%   77 29.99 29.96      
May 25 19:54 S 11 10 Mostly Clear FEW090 79 66     65%   80 29.99 29.95      
May 25 18:54 SSE 14 10 Mostly Cloudy BKN090 81 65     58%   83 29.99 29.95      
May 25 17:54 S 10 10 Partly Cloudy FEW060 SCT085 82 64     55%   84 29.99 29.96      
May 25 16:54 S 10 10 Partly Cloudy FEW055 SCT080 83 65     55%   85 30 29.96      
May 25 15:54 SSE 13 10 Mostly Cloudy FEW035 SCT060 BKN085 84 65     53%   86 30.02 29.99      
May 25 14:54 SSE 9 10 Mostly Cloudy FEW045 BKN070 BKN080 83 66     57%   85 30.05 30.01      
May 25 13:54 SSE 5 10 Mostly Cloudy FEW035 SCT043 BKN065 80 64     58%   82 30.07 30.04      
May 25 12:54 SSE 3 10 Mostly Cloudy BKN036 80 65     60%   82 30.1 30.06      
May 25 11:54 SE 3 10 Partly Cloudy SCT032 78 64     62%   79 30.12 30.08      
May 25 10:54 3 10 Partly Cloudy SCT032 75 63     66%   75 30.13 30.1      
May 25 10:33 Calm 10 Cloudy OVC031 75 62     64%   75 30.14        
May 25 09:54 NNW 3 10 Cloudy OVC028 73 62     68%   73 30.16 30.13      
May 25 09:09 Calm 10 Mostly Cloudy BKN028 71 60     68%   71 30.16        
May 25 08:54 Calm 10 Partly Cloudy SCT028 71 59     66%   71 30.16 30.13      
May 25 07:54 Calm 10 Mostly Clear FEW032 67 59     76%     30.16 30.13      
May 25 06:54 NE 3 10 Clear CLR 63 59     87%     30.16 30.13      
May 25 05:54 Calm 10 Mostly Clear FEW060 63 58     84%     30.16 30.13      
May 25 04:54 Calm 10 Cloudy OVC060 64 60     87%     30.16 30.13      
May 25 03:54 Calm 10 Clear CLR 64 59     84%     30.16 30.13      
May 25 02:54 NNW 3 10 Mostly Cloudy BKN070 65 58     78%     30.17 30.14      
May 25 01:54 ENE 3 10 Clear CLR 65 59     81%     30.18 30.14      
May 25 00:54 Calm 10 Clear CLR 65 60     84%     30.19 30.16      
May 24 23:54 Calm 10 Clear CLR 67 60     79%     30.2 30.16      
May 24 22:54 Calm 10 Clear CLR 72 59     64%   72 30.2 30.16      
May 24 21:54 SE 3 10 Clear CLR 72 58     61%   72 30.2 30.17      
May 24 20:54 SE 5 10 Mostly Clear FEW050 74 58     57%   74 30.19 30.16      
May 24 19:54 SE 9 10 Mostly Clear FEW050 76 58     54%   76 30.19 30.15      
May 24 18:54 SE 8 10 Mostly Clear FEW055 79 57     47%   79 30.16 30.13      
May 24 17:54 SE 9 10 Mostly Clear FEW055 79 56     45%   79 30.16 30.13      
May 24 16:54 E 10 10 Partly Cloudy SCT055 80 58     47%   80 30.17 30.14      
May 24 15:54 ESE 9 10 Mostly Cloudy BKN050 80 57     45%   80 30.19 30.15      
May 24 14:54 ESE 7 10 Mostly Cloudy BKN050 80 58     47%   80 30.2 30.17      
May 24 13:54 6 10 Partly Cloudy SCT055 79 58     49%   79 30.22 30.18      
May 24 12:54 NE 10 10 Mostly Clear FEW055 79 56     45%   79 30.24 30.2      
May 24 11:54 5 10 Mostly Clear FEW045 77 56     48%   77 30.25 30.21      
May 24 10:54 3 10 Mostly Clear FEW040 76 58     54%   76 30.25 30.21      
May 24 09:54 NNE 7 10 Mostly Cloudy BKN040 72 58     61%   72 30.24 30.21      
May 24 08:54 NNE 8 10 Cloudy OVC040 70 56     61%     30.24 30.21      
May 24 07:54 NNE 8 10 Mostly Cloudy BKN042 69 58     68%     30.24 30.2      
May 24 06:54 N 6 10 Cloudy OVC041 67 57     71%     30.22 30.19      
May 24 05:54 NNE 7 10 Cloudy OVC040 67 55     66%     30.21 30.17      
May 24 04:54 NNE 8 10 Mostly Cloudy BKN039 67 56     68%     30.19 30.15      
May 24 03:54 NNE 7 10 Cloudy OVC038 69 58     68%     30.18 30.14      
May 24 02:54 Calm 10 Cloudy OVC041 68 60     76%     30.18 30.14      
May 24 01:54 Calm 10 Cloudy OVC042 67 61     81%     30.17 30.14      
May 24 00:54 Calm 10 Cloudy OVC036 71 59     66%   71 30.17 30.13      
May 23 23:54 NNW 5 10 Clear CLR 69 59     70%     30.15 30.11      
May 23 22:54 N 5 10 Clear CLR 73 58     59%   73 30.13 30.09      
May 23 21:54 NNW 6 10 Clear CLR 74 57     56%   74 30.11 30.08      
May 23 20:54 Calm 10 Clear CLR 75 58     55%   75 30.1 30.06      
May 23 19:54 NW 7 10 Clear CLR 78 59     52%   78 30.08 30.04      
May 23 18:54 NNW 9 10 Clear CLR 83 57     41%   82 30.06 30.03      
May 23 17:54 NW 10 10 Mostly Clear FEW060 83 57     41%   82 30.06 30.03      
May 23 16:54   10 Mostly Clear FEW070 84 58     41%   83 30.06 30.02      
May 23 15:54   10 Mostly Clear FEW065 84 59     43%   84 30.06 30.03      
May 23 14:54 NW 9 10 Partly Cloudy SCT065 85 61     45%   85 30.07 30.03      
May 23 13:54 NW 9 10 Partly Cloudy SCT055 SCT065 81 62     53%   82 30.08 30.05      
May 23 12:54 W 13 10 Partly Cloudy SCT060 82 62     51%   83 30.09 30.05      
May 23 11:54 W 13 10 Partly Cloudy SCT044 81 64     56%   83 30.09 30.06      
May 23 10:54 WNW 10 10 Partly Cloudy SCT035 79 64     60%   79 30.09 30.06      
May 23 09:54 W 8 10 Mostly Clear FEW033 76 65     69%   76 30.09 30.05      
May 23 08:54 WNW 6 10 Partly Cloudy SCT032 74 66     76%   75 30.09 30.06      
May 23 07:54 WNW 10 10 Partly Cloudy FEW030 SCT200 70 65     84%     30.08 30.05      
May 23 06:54 WNW 8 10 Partly Cloudy FEW028 SCT190 67 64     90%     30.06 30.03      
May 23 05:54 WSW 3 10 Mostly Clear FEW050 66 63     90%     30.04 30.01      
May 15 14:54 S 11 10 Mostly Cloudy FEW042 BKN100 BKN160 88 68     52%   92 29.97 29.93      
May 14 23:54 ENE 3 10 Cloudy OVC070 75 63     66%   75 30.04 30      
May 14 18:54 S 11 10 Partly Cloudy FEW070 SCT100 SCT250 88 63     43%   89 29.97 29.93      
May 14 12:54 S 5 10 Mostly Clear FEW048 88 63     43%   89 30.06 30.02      
May 14 11:54 5 10 Mostly Clear FEW048 86 62     45%   87 30.07 30.03      
May 13 17:54 WSW 9 10 Clear CLR 91 54     29%   89 29.99 29.94      
May 12 17:54 WSW 6 10 Mostly Cloudy FEW080 BKN160 91 56     31%   89 30.03 29.98      
May 12 07:54 W 3 10 Partly Cloudy SCT250 71 61     70%   71 30.15 30.11      
May 12 06:20 Calm 10 Partly Cloudy SCT250 67 58     73%     30.12        
May 11 14:54 6 10 Partly Cloudy SCT060 86 55     35%   84 30.04 30      
Jun 12 02:54 WNW 5 10 Clear CLR 71 59     66%   71 30.16 30.12      
Jun 10 01:54 Calm 10 Clear CLR 59 54     83%     30.07 30.04      
Jun 09 11:54 NW 15 10 Partly Cloudy SCT043 SCT050 74 51     45%   73 29.99 29.96      
Jun 09 02:54 W 8 10 Mostly Cloudy BKN090 59 56     90%     29.9 29.88      
Jun 09 00:54 W 6 10 Cloudy OVC090 59 57     93%     29.91 29.89      
Jun 08 09:54 ENE 7 10 Mostly Cloudy BKN028 BKN035 61 52     72%     30.01 29.99      
Jun 07 22:54 NE 7 10 Mostly Cloudy FEW027 BKN041 BKN048 62 53     72%     30.04 30.02      
Jun 07 11:54 NE 8 10 Partly Cloudy SCT044 71 50     47%   70 29.96 29.93      
Jun 06 07:54 6 10 Partly Cloudy FEW040 SCT280 68 60     76%     29.83 29.8      
Jun 05 15:54 WSW 6 10 Light Rain FEW013 OVC060 68 65     90%     29.81 29.78 0